[[{"header":{"parameterUnit":"m.s-1","parameterCategory":1,"la1":30.2991,"la2":30.254,"lo1":-89.0895,"lo2":-89.0444,"dy":0.0017,"dx":0.0017,"nx":28,"ny":28,"refTime":"2025-07-30T21:00:00:Z","depth":0,"parameterNumber":2,"parameterNumberName":"U-component_of_WINDS"},"data":[0,0,0,0,0,0,0,0,0,0,0,0,0,0,0,0,0,0,0,0,0,0,0,0,0,0,0,0,0,0,0,0,0,0,0,0,0,0,0,0,0,0,0,0,0,0,0,0,0,0,0,0,0,0,0,0,0,0,5.5484,5.5485,0,5.5597,5.5598,5.5599,5.5515,5.5511,5.5508,5.5504,5.5616,5.5623,5.5629,0,0,0,0,0,0,0,0,0,0,0,0,0,5.519,5.5196,5.5484,5.5485,5.5487,5.5597,5.5598,5.56,5.5516,5.5511,5.5507,5.5503,5.5614,5.5622,5.563,0,0,0,0,0,0,0,0,0,0,0,0,0,5.5312,5.5198,5.5484,5.5458,5.5457,5.5596,5.5598,5.56,5.5517,5.5511,5.5506,5.5501,5.5612,5.5621,5.5631,5.58,0,0,5.566,5.5664,0,0,0,0,0,0,0,0,5.5305,5.5322,5.546,5.546,5.5459,5.5536,5.5536,5.5667,5.5518,5.5494,5.5504,5.5498,5.5594,5.5605,5.5638,5.5805,5.581,5.5661,5.5667,5.5671,5.5674,0,0,0,0,0,0,0,5.5296,5.5317,5.5528,5.5463,5.5462,5.5439,5.545,5.556,5.5573,5.5496,5.549,5.5505,5.5593,5.5629,5.564,5.5812,5.5661,5.5669,5.5675,5.5679,5.612,5.6126,0,0,0,0,0,0,5.5291,5.5311,5.5525,5.5532,5.5367,5.5449,5.5462,5.5517,5.5572,5.5575,5.5509,5.55,5.5615,5.5629,5.5644,5.5842,5.5671,5.568,5.5685,5.6114,5.6121,5.6128,0,0,0,0,0,0,5.5285,5.5311,5.552,5.542,5.5445,5.546,5.5523,5.5522,5.5558,5.5582,5.5584,5.5544,5.5611,5.563,5.5761,5.5845,5.5684,5.5693,5.6107,5.6116,5.6124,5.6244,0,0,0,0,0,0,5.5277,5.5309,5.5375,5.5422,5.545,5.5638,5.5528,5.5528,5.5576,5.5565,5.5615,5.5618,5.5608,5.5747,5.5771,5.5856,5.57,5.6099,5.6111,5.6122,5.6232,5.6256,5.6276,0,0,0,0,0,5.5267,5.5404,5.5379,5.5405,5.5533,5.5643,5.5659,5.5646,5.5583,5.5648,5.5663,5.5617,5.5833,5.5762,5.5787,5.5876,5.6094,5.6108,5.6121,5.6223,5.6251,5.6275,0,0,0,0,0,0,5.5366,5.541,5.5382,5.554,5.5588,5.5629,5.5711,5.5677,5.5744,5.5731,5.5711,5.5723,5.586,5.5881,5.5801,5.6041,5.5953,5.5972,5.6022,5.6049,5.607,5.6061,5.5708,0,0,0,0,0,5.5407,5.5494,5.5527,5.5662,5.5688,5.5696,5.5743,5.5728,5.5777,5.5797,5.5822,5.587,5.5948,5.6,5.6074,5.6236,5.6244,5.631,5.6331,5.6349,5.6365,5.6448,5.6477,5.6172,5.6172,5.6171,0,0,5.5491,5.5525,5.5582,5.5683,5.5719,5.5807,5.5713,5.5812,5.5876,5.5812,5.5936,5.5956,5.6008,5.6155,5.6221,5.6177,5.6451,5.6366,5.638,5.6386,5.6465,5.6494,5.652,5.6181,5.6179,5.6178,0,0,5.5688,5.5725,5.584,5.5878,5.5934,5.5938,5.5966,5.6011,5.6022,5.6147,5.61,5.6176,5.6312,5.635,5.6387,5.6598,5.6557,5.6623,5.6735,5.6816,5.684,5.6862,5.6933,5.696,5.6639,5.6639,5.6639,0,5.5785,5.5918,5.5903,5.6004,5.6049,5.5996,5.6111,5.6148,5.6225,5.6256,5.6207,5.6375,5.6406,5.6559,5.661,5.6644,5.6672,5.6615,5.6839,5.686,5.6879,5.6947,5.6975,5.6647,5.6646,5.6645,5.6644,0,5.6032,5.6125,5.6211,5.6287,5.6341,5.6449,5.6448,5.6505,5.6486,5.6494,5.6621,5.6657,5.6735,5.6771,5.6754,5.6921,5.6892,5.6842,5.6752,5.6916,5.6979,5.7005,5.6657,5.6654,5.6652,5.665,0,0,5.6295,5.6361,5.6392,5.6425,5.6482,5.6552,5.6657,5.6734,5.6782,5.6836,5.6921,5.7037,5.699,5.7032,5.7018,5.709,5.725,5.703,5.7031,5.7067,5.7433,5.7469,5.7499,5.7224,5.7229,5.7233,5.7427,0,5.6492,5.6675,5.6664,5.6835,5.6918,5.6868,5.6958,5.7002,5.7013,5.7083,5.7094,5.7175,5.7109,5.7133,5.7203,5.7216,5.7323,5.7202,5.73,5.7304,5.7285,5.7533,5.7572,5.7753,5.7453,5.7457,5.746,0,5.6748,5.6811,5.699,5.7033,5.7067,5.7149,5.7217,5.7287,5.7334,5.7336,5.7383,5.7357,5.7459,5.7369,5.7508,5.7426,5.7465,5.7478,5.7485,5.7491,5.739,5.7543,5.7811,5.7837,5.75,5.7496,5.7494,0,5.6917,5.7047,5.717,5.72,5.7254,5.7312,5.7336,5.7379,5.7425,5.7485,5.7514,5.7586,5.7624,5.7678,5.767,5.7606,5.7811,5.7721,5.7813,5.7813,5.7856,5.7853,5.8131,5.7887,5.7886,5.7886,5.7885,0,5.7137,5.7248,5.7247,5.7322,5.7444,5.7429,5.7549,5.7567,5.7605,5.7681,5.7643,5.7715,5.7702,5.7773,5.7768,5.7882,5.79,5.7903,5.7899,5.7904,5.7904,5.7928,5.7914,5.7893,5.7891,5.789,5.7889,0,5.7346,5.735,5.748,5.7521,5.7533,5.762,5.7653,5.7723,5.7731,5.7827,5.7849,5.786,5.7941,5.794,5.8033,5.8029,5.8168,5.8151,5.8152,5.8147,5.8238,5.8228,5.8539,5.8577,5.8311,5.8314,5.8316,0,5.7485,5.7568,5.7617,5.7666,5.7695,5.7774,5.7821,5.781,5.786,5.7919,5.7982,5.806,5.8122,5.8254,5.8269,5.8339,5.8322,5.8426,5.8332,5.8334,5.8319,5.8313,5.832,5.8443,5.8446,5.8449,5.8451,0,5.7729,5.7727,5.7797,5.7868,5.7926,5.7981,5.8031,5.8073,5.8067,5.8125,5.8208,5.8256,5.8351,5.8428,5.8495,5.8518,5.8483,5.8481,5.8505,5.8509,5.8505,5.8505,5.8198,5.8473,5.8471,5.8469,5.8468,5.8467,5.7905,5.7976,5.8021,5.81,5.8137,5.8184,5.8251,5.8267,5.8337,5.8413,5.8402,5.8494,5.8537,5.8623,5.8653,5.8723,5.8686,5.8722,5.873,5.8739,5.8747,5.8496,5.8735,5.8735,5.8734,5.8734,5.8733,0,5.8144,5.8171,5.8244,5.8316,5.8377,5.8341,5.8394,5.8447,5.8529,5.8573,5.8634,5.8728,5.8802,5.8823,5.8894,5.8946,5.8931,5.8965,5.8959,5.8964,5.8778,5.8748,5.8975,5.8975,5.8975,5.8975,5.8975,5.8975,5.8276,5.8393,5.8396,5.853,5.8555,5.8646,5.868,5.8722,5.8756,5.8864,5.8925,5.8939,5.8972,5.9045,5.911,5.9114,5.914,5.918,5.9177,5.9002,5.8978,5.8954,5.8926,5.9186,5.9187,5.9356,5.9358,5.9359]},{"header":{"parameterUnit":"m.s-1","parameterCategory":1,"la1":30.2991,"la2":30.254,"lo1":-89.0895,"lo2":-89.0444,"dy":0.0017,"dx":0.0017,"nx":28,"ny":28,"refTime":"2025-07-30T21:00:00:Z","depth":0,"parameterNumber":3,"parameterNumberName":"V-component_of_WINDS"},"data":[0,0,0,0,0,0,0,0,0,0,0,0,0,0,0,0,0,0,0,0,0,0,0,0,0,0,0,0,0,0,0,0,0,0,0,0,0,0,0,0,0,0,0,0,0,0,0,0,0,0,0,0,0,0,0,0,0,0,4.8901,4.8901,0,4.8969,4.897,4.897,4.8949,4.8947,4.8946,4.8945,4.901,4.9013,4.9016,0,0,0,0,0,0,0,0,0,0,0,0,0,4.8746,4.8749,4.89,4.8901,4.8902,4.8969,4.897,4.8971,4.8949,4.8947,4.8946,4.8944,4.9009,4.9012,4.9016,0,0,0,0,0,0,0,0,0,0,0,0,0,4.8813,4.875,4.89,4.89,4.89,4.8969,4.897,4.8971,4.8949,4.8947,4.8945,4.8943,4.9008,4.9012,4.9017,4.9088,0,0,4.9031,4.9033,0,0,0,0,0,0,0,0,4.881,4.8819,4.8899,4.89,4.8901,4.8948,4.8939,4.901,4.895,4.8931,4.8945,4.8942,4.8991,4.8997,4.9014,4.9091,4.9094,4.9031,4.9034,4.9036,4.9037,0,0,0,0,0,0,0,4.8805,4.8816,4.8927,4.89,4.8901,4.8894,4.8901,4.8952,4.8972,4.8932,4.8931,4.8939,4.8991,4.901,4.9015,4.9095,4.9031,4.9035,4.9038,4.904,4.9232,4.9234,0,0,0,0,0,0,4.88,4.8812,4.8925,4.8929,4.8849,4.8899,4.8907,4.8935,4.8971,4.8975,4.8941,4.8938,4.9003,4.901,4.9018,4.9102,4.9036,4.904,4.9043,4.923,4.9233,4.9235,0,0,0,0,0,0,4.8797,4.8811,4.8922,4.8871,4.8884,4.8904,4.8936,4.8937,4.8956,4.8978,4.8981,4.8957,4.9001,4.9011,4.9071,4.9104,4.9042,4.9047,4.9227,4.9231,4.9234,4.9272,0,0,0,0,0,0,4.8793,4.881,4.8839,4.8871,4.8887,4.8976,4.8938,4.894,4.8965,4.8962,4.8994,4.8997,4.9,4.9064,4.9075,4.9109,4.905,4.9224,4.9229,4.9233,4.9268,4.9277,4.9284,0,0,0,0,0,4.8788,4.8846,4.884,4.8854,4.8924,4.8978,4.8987,4.8991,4.8968,4.8996,4.9009,4.8996,4.9099,4.907,4.9083,4.9119,4.9222,4.9227,4.9232,4.9265,4.9275,4.9284,0,0,0,0,0,0,4.8815,4.8851,4.8844,4.8916,4.8944,4.8974,4.901,4.9002,4.9037,4.9032,4.9034,4.9041,4.9102,4.9117,4.9084,4.9189,4.9157,4.9165,4.9177,4.9187,4.9195,4.9189,4.9054,0,0,0,0,0,4.883,4.8873,4.8901,4.8961,4.8976,4.8991,4.9014,4.9015,4.9044,4.9055,4.9074,4.9101,4.9139,4.9164,4.9201,4.9271,4.9276,4.9301,4.9309,4.9316,4.9322,4.9358,4.9369,4.9252,4.9252,4.9252,0,0,4.886,4.8885,4.8912,4.8967,4.8989,4.9032,4.9001,4.9047,4.9078,4.9062,4.9119,4.9134,4.9164,4.9228,4.9258,4.9242,4.9356,4.9323,4.9328,4.933,4.9364,4.9375,4.9385,4.9256,4.9255,4.9255,0,0,4.8937,4.8961,4.9013,4.9036,4.907,4.9079,4.9092,4.9123,4.9132,4.919,4.9179,4.9214,4.9281,4.9302,4.9322,4.9406,4.9394,4.9418,4.9458,4.9493,4.9502,4.951,4.9538,4.9548,4.9424,4.9424,4.9424,0,4.8969,4.9034,4.904,4.9087,4.9111,4.91,4.9151,4.9172,4.9216,4.9232,4.9215,4.9297,4.9317,4.9385,4.9405,4.9423,4.9435,4.9413,4.9501,4.9509,4.9517,4.9543,4.9553,4.9427,4.9426,4.9426,4.9426,0,4.9071,4.9117,4.9154,4.9198,4.9226,4.9275,4.9286,4.9313,4.9312,4.9322,4.938,4.9403,4.9443,4.946,4.9459,4.9528,4.9517,4.95,4.9468,4.953,4.9555,4.9565,4.943,4.9429,4.9429,4.9428,0,0,4.9166,4.9213,4.9226,4.9245,4.9282,4.9316,4.9363,4.9404,4.9426,4.9457,4.9495,4.9552,4.9536,4.9559,4.9559,4.959,4.9652,4.957,4.957,4.9582,4.9727,4.9737,4.9749,4.9645,4.9647,4.9649,4.9723,0,4.9244,4.9329,4.9335,4.9411,4.9451,4.9441,4.9482,4.9508,4.9519,4.9554,4.9565,4.9604,4.9582,4.9595,4.9626,4.9638,4.9681,4.9633,4.9678,4.968,4.9669,4.9762,4.9774,4.9843,4.9733,4.9735,4.9736,0,4.9346,4.938,4.9461,4.9491,4.9508,4.9545,4.9581,4.9615,4.9644,4.9649,4.9674,4.967,4.9717,4.9684,4.9747,4.9714,4.9733,4.9742,4.9745,4.9747,4.971,4.9765,4.9866,4.9875,4.9752,4.975,4.9749,0,4.9404,4.947,4.9527,4.9543,4.958,4.9606,4.9622,4.9649,4.9673,4.9704,4.9719,4.9756,4.9775,4.9802,4.9807,4.9784,4.9869,4.9838,4.9873,4.9873,4.989,4.9888,4.9993,4.9906,4.9906,4.9906,4.9905,0,4.9488,4.9537,4.9553,4.9587,4.9641,4.9647,4.9699,4.9713,4.9737,4.9772,4.9766,4.9799,4.9805,4.9839,4.9843,4.9893,4.9902,4.9906,4.9906,4.9906,4.9905,4.9916,4.9911,4.9908,4.9908,4.9907,4.9907,0,4.9561,4.9574,4.9634,4.9665,4.9673,4.9711,4.9736,4.9768,4.9779,4.9823,4.9834,4.985,4.9889,4.9897,4.9944,4.9946,5.0005,5.0001,4.9995,4.9994,5.0028,5.0024,5.0142,5.0156,5.0062,5.0063,5.0064,0,4.9613,4.9651,4.9685,4.9709,4.9727,4.9766,4.979,4.9796,4.9821,4.9856,4.9883,4.9922,4.9953,5.0016,5.003,5.0065,5.0061,5.01,5.0066,5.0063,5.0058,5.0055,5.0058,5.0105,5.0106,5.0107,5.0108,0,4.9703,4.9708,4.9744,4.9782,4.9811,4.9841,4.9869,4.9889,4.9899,4.9927,4.9968,4.9992,5.0039,5.0077,5.0112,5.0126,5.0118,5.0119,5.0128,5.0127,5.0121,5.0122,5.0011,5.0115,5.0115,5.0114,5.0114,5.0113,4.9766,4.9798,4.9827,4.9866,4.9889,4.9915,4.9946,4.9961,4.9996,5.0035,5.0037,5.0081,5.0106,5.0153,5.0169,5.0202,5.019,5.0204,5.0207,5.021,5.0212,5.0118,5.0209,5.0209,5.0208,5.0208,5.0208,0,4.9853,4.9872,4.9908,4.9948,4.9979,4.9971,5.0002,5.0027,5.0066,5.0092,5.0123,5.0168,5.0205,5.0222,5.0258,5.028,5.0277,5.0289,5.0286,5.0289,5.0223,5.021,5.0291,5.0291,5.0291,5.0291,5.0291,5.0291,4.9902,4.9955,4.9963,5.0027,5.0044,5.0088,5.0106,5.0129,5.015,5.0202,5.0232,5.0244,5.0266,5.0303,5.0335,5.0339,5.0351,5.0364,5.0366,5.0303,5.0294,5.0286,5.0274,5.0367,5.0367,5.043,5.043,5.0431]}]]